This is the latest recevied weather packets stored in our database for station/object KB9GXK. If no packets are shown the sender has not sent any weather packets the latest 10 day(s).
| Time | Temp. | Humidity | Pressure | Rain* | Wind** | Luminosity | Snow |
|---|---|---|---|---|---|---|---|
| 1777737999 | 11.11° C | 43% | 1020.2 hPa | 0 mm | - | 694 W/m² | - |
| 1777737698 | 11.11° C | 42% | 1020.3 hPa | 0 mm | - | 704 W/m² | - |
| 1777737092 | 11.11° C | 44% | 1020.2 hPa | 0 mm | - | 682 W/m² | - |
| 1777736788 | 11.67° C | 42% | 1020.5 hPa | 0 mm | - | 646 W/m² | - |
| 1777736160 | 10.56° C | 45% | 1020.3 hPa | 0 mm | - | 623 W/m² | - |
| 1777735857 | 11.11° C | 43% | 1020.5 hPa | 0 mm | - | 106 W/m² | - |
| 1777735554 | 11.11° C | 42% | 1020.4 hPa | 0 mm | - | 655 W/m² | - |
| 1777735251 | 10° C | 43% | 1020.5 hPa | 0 mm | - | 596 W/m² | - |
| 1777734949 | 11.67° C | 41% | 1020.3 hPa | 0 mm | - | 115 W/m² | - |
| 1777734646 | 11.67° C | 42% | 1020.4 hPa | 0 mm | - | 573 W/m² | - |
| 1777734344 | 11.11° C | 44% | 1020.5 hPa | 0 mm | - | 550 W/m² | - |
| 1777734039 | 10.56° C | 43% | 1020.5 hPa | 0 mm | - | 535 W/m² | - |
| 1777733736 | 10.56° C | 44% | 1020.5 hPa | 0 mm | - | 522 W/m² | - |
| 1777733433 | 10.56° C | 46% | 1020.5 hPa | 0 mm | - | 516 W/m² | - |
| 1777733129 | 10° C | 43% | 1020.6 hPa | 0 mm | - | 501 W/m² | - |
| 1777732826 | 10.56° C | 45% | 1020.6 hPa | 0 mm | - | 490 W/m² | - |
| 1777732522 | 10° C | 48% | 1020.6 hPa | 0 mm | - | 478 W/m² | - |
| 1777732220 | 10° C | 48% | 1020.8 hPa | 0 mm | - | 465 W/m² | - |
| 1777731917 | 9.44° C | 45% | 1020.6 hPa | 0 mm | - | 452 W/m² | - |
| 1777731614 | 9.44° C | 46% | 1020.4 hPa | 0 mm | - | 442 W/m² | - |
| 1777731312 | 9.44° C | 52% | 1020.4 hPa | 0 mm | - | 427 W/m² | - |
| 1777731009 | 8.89° C | 54% | 1020.4 hPa | 0 mm | - | 415 W/m² | - |
| 1777730708 | 7.78° C | 56% | 1020.5 hPa | 0 mm | - | 402 W/m² | - |
| 1777730099 | 8.33° C | 58% | 1020.9 hPa | 0 mm | - | 378 W/m² | - |
| 1777729796 | 7.78° C | 61% | 1020.5 hPa | 0 mm | - | 363 W/m² | - |
* Rain latest hour (hover to see other rain measurements)
** Current wind speed in m/s (hover to see current wind gust speed)